TimeMST,TemperatureF,Dew PointF,Humidity,Sea Level PressureIn,VisibilityMPH,Wind Direction,Wind SpeedMPH,Gust SpeedMPH,PrecipitationIn,Events,Conditions,WindDirDegrees,DateUTC
12:15 AM,35.6,32.0,87,30.07,10.0,Calm,Calm,-,N/A,,Overcast,0,2012-11-21 07:15:00
12:35 AM,35.6,33.8,93,30.06,10.0,Calm,Calm,-,N/A,,Overcast,0,2012-11-21 07:35:00
12:55 AM,35.6,33.8,93,30.05,10.0,Calm,Calm,-,N/A,,Overcast,0,2012-11-21 07:55:00
1:15 AM,37.4,33.8,87,30.03,10.0,South,5.8,-,N/A,,Overcast,170,2012-11-21 08:15:00
1:35 AM,37.4,33.8,87,30.02,10.0,SSW,10.4,-,N/A,,Overcast,210,2012-11-21 08:35:00
1:55 AM,37.4,33.8,87,30.02,10.0,SSW,8.1,-,N/A,,Mostly Cloudy,210,2012-11-21 08:55:00
2:15 AM,39.2,33.8,81,30.02,10.0,SW,9.2,-,N/A,,Overcast,220,2012-11-21 09:15:00
2:35 AM,39.2,33.8,81,30.02,10.0,SSW,8.1,-,N/A,,Overcast,210,2012-11-21 09:35:00
2:55 AM,37.4,33.8,87,30.02,10.0,South,5.8,-,N/A,,Overcast,180,2012-11-21 09:55:00
3:15 AM,37.4,33.8,87,30.01,10.0,SSE,4.6,-,N/A,,Overcast,160,2012-11-21 10:15:00
3:35 AM,35.6,32.0,87,30.01,10.0,ESE,6.9,-,N/A,,Mostly Cloudy,120,2012-11-21 10:35:00
3:55 AM,35.6,32.0,87,30.00,10.0,SSE,6.9,-,N/A,,Mostly Cloudy,150,2012-11-21 10:55:00
4:15 AM,35.6,30.2,81,29.99,10.0,SSW,3.5,-,N/A,,Partly Cloudy,210,2012-11-21 11:15:00
4:35 AM,35.6,30.2,81,29.98,10.0,South,6.9,-,N/A,,Scattered Clouds,190,2012-11-21 11:35:00
4:55 AM,35.6,30.2,81,29.98,10.0,South,3.5,-,N/A,,Scattered Clouds,190,2012-11-21 11:55:00
5:15 AM,35.6,30.2,81,29.97,10.0,SSW,6.9,-,N/A,,Mostly Cloudy,200,2012-11-21 12:15:00
5:35 AM,37.4,30.2,75,29.97,10.0,West,3.5,-,N/A,,Scattered Clouds,270,2012-11-21 12:35:00
5:55 AM,33.8,30.2,87,29.96,10.0,Calm,Calm,-,N/A,,Clear,0,2012-11-21 12:55:00
6:15 AM,35.6,30.2,81,29.96,10.0,SW,8.1,-,N/A,,Clear,220,2012-11-21 13:15:00
6:51 AM,37.4,30.2,75,29.96,10.0,SSW,8.1,-,N/A,,Scattered Clouds,210,2012-11-21 13:51:00
7:51 AM,39.2,30.2,70,29.97,10.0,South,9.2,-,N/A,,Mostly Cloudy,190,2012-11-21 14:51:00
8:52 AM,42.8,28.4,57,29.96,10.0,South,9.2,-,N/A,,Mostly Cloudy,190,2012-11-21 15:52:00
9:55 AM,44.6,26.6,49,29.95,10.0,South,17.3,25.3,N/A,,Overcast,180,2012-11-21 16:55:00
10:51 AM,44.6,26.6,49,29.95,10.0,South,18.4,25.3,N/A,,Overcast,170,2012-11-21 17:51:00
11:52 AM,44.6,28.4,53,29.93,10.0,South,17.3,25.3,N/A,,Overcast,180,2012-11-21 18:52:00
12:52 PM,44.6,33.8,66,29.92,10.0,South,17.3,23.0,N/A,,Overcast,180,2012-11-21 19:52:00
1:50 PM,44.6,28.4,53,29.90,10.0,South,21.9,-,N/A,,Overcast,190,2012-11-21 20:50:00
2:52 PM,42.8,32.0,66,29.90,10.0,SSW,17.3,28.8,N/A,,Overcast,210,2012-11-21 21:52:00
3:54 PM,39.2,33.8,81,29.91,9.0,Calm,Calm,-,N/A,,Overcast,0,2012-11-21 22:54:00
4:52 PM,37.4,33.8,87,29.94,8.0,South,17.3,34.5,N/A,,Overcast,180,2012-11-21 23:52:00
5:51 PM,37.4,35.6,93,29.94,10.0,SE,17.3,-,N/A,,Overcast,140,2012-11-22 00:51:00
6:52 PM,37.4,33.8,87,29.95,10.0,SW,11.5,23.0,N/A,,Overcast,230,2012-11-22 01:52:00
7:51 PM,37.4,30.2,75,29.95,7.0,SW,17.3,28.8,N/A,Snow,Snow,220,2012-11-22 02:51:00
8:54 PM,35.6,28.4,75,29.97,8.0,SW,23.0,33.4,N/A,,Overcast,230,2012-11-22 03:54:00
9:35 PM,33.8,30.2,87,30.00,10.0,SW,9.2,-,N/A,,Mostly Cloudy,220,2012-11-22 04:35:00
9:55 PM,35.6,26.6,70,30.00,7.0,SW,17.3,23.0,N/A,,Overcast,220,2012-11-22 04:55:00
10:15 PM,35.6,24.8,65,30.00,9.0,SW,19.6,27.6,N/A,,Overcast,230,2012-11-22 05:15:00
10:35 PM,35.6,24.8,65,30.00,10.0,SW,21.9,28.8,N/A,,Overcast,230,2012-11-22 05:35:00
10:55 PM,33.8,21.2,60,30.01,10.0,SW,18.4,23.0,N/A,,Mostly Cloudy,230,2012-11-22 05:55:00
11:15 PM,33.8,19.4,56,30.01,10.0,WSW,23.0,29.9,N/A,,Mostly Cloudy,240,2012-11-22 06:15:00
11:35 PM,32.0,21.2,64,30.04,10.0,SW,11.5,24.2,N/A,,Mostly Cloudy,220,2012-11-22 06:35:00